Location: Mt. Cuba Astronomical Observatory
(39.8100°N, 75.6300°W)
Time: 01:23:37
(UTC-04:00)

Daily predictions for brighter satellites

Satellite Brightness Start Highest point End
(mag) Time Altitude Azimuth Time Altitude Azimuth Time Altitude Azimuth
H-2A R/B 4.5 00:04:41 13° WNW 00:04:41 13° WNW 00:06:09 10° WNW
COSMOS 2428 4.3 00:05:01 29° WNW 00:05:15 29° WNW 00:10:12 10° N
NOSS 3-1 (A) 4.5 00:10:33 39° NNE 00:10:33 39° NNE 00:14:36 10° NNE
ATLAS 2AS CENTAUR R/B 4.5 00:13:05 24° ENE 00:13:05 24° ENE 00:16:39 10° NE
SL-16 R/B 4.0 00:33:20 25° NE 00:33:20 25° NE 00:35:41 10° NNE
Cosmos 2333 Rocket 3.9 00:46:51 28° NW 00:46:51 28° NW 00:50:56 10° N
CZ-4C R/B 3.4 00:39:41 10° NW 00:44:55 51° NW 00:44:55 51° NW
ATLAS 3B R/B 3.9 00:44:37 10° NNW 00:50:42 33° NE 00:51:14 32° NE
Cosmos 2237 Rocket 3.8 00:56:36 29° NNW 00:56:36 29° NNW 01:00:17 10° N
Cosmos 2278 Rocket 4.3 00:54:19 10° NW 00:56:09 19° NW 00:56:09 19° NW
CZ-2C R/B 4.4 01:14:28 10° N 01:17:28 29° NNW 01:17:28 29° NNW
USA 215 4.1 01:17:17 10° NE 01:21:28 43° NE 01:21:28 43° NE
USA 267 4.4 01:49:36 10° E 01:55:35 40° NNE 02:01:34 10° NW
ATLAS CENTAUR R/B 4.4 02:00:33 13° N 02:00:33 13° N 02:01:15 10° N
Cosmos 2369 Rocket 3.5 01:53:18 10° NNW 01:56:56 37° N 01:56:56 37° N
ATLAS 2AS CENTAUR R/B 3.2 02:00:29 61° NW 02:00:29 61° NW 02:08:27 10° NNE
SL-16 R/B 4.2 02:15:11 19° NW 02:15:11 19° NW 02:18:40 10° N
Resurs 1-4 Rocket 4.3 02:13:56 10° NE 02:16:58 16° E 02:16:58 16° E
CZ-2D R/B 4.3 02:16:55 10° NE 02:20:12 17° E 02:20:12 17° E
Cosmos 1943 Rocket 3.1 02:20:07 10° NNW 02:25:05 45° NE 02:25:05 45° NE
BREEZE M DEB (TANK) 4.4 02:05:06 10° WNW 02:28:05 87° NNE 02:30:17 50° ESE
ATLAS 3B R/B 3.8 02:35:09 10° NW 02:38:26 29° NW 02:38:26 29° NW
SL-16 R/B 3.4 02:49:25 33° ESE 02:51:36 46° ENE 02:57:27 10° N
Aureole 1 Rocket 4.3 02:52:29 46° ENE 02:52:29 46° ENE 02:56:12 10° NNE
Cosmos 1680 Rocket 4.4 02:53:52 45° ENE 02:53:52 45° ENE 02:58:11 10° NNE
USA 238 DEB 4.3 02:47:03 10° NW 02:52:03 46° WNW 02:52:03 46° WNW
USA 238 4.2 02:47:09 10° NW 02:52:12 47° WNW 02:52:12 47° WNW
Cosmos 2218 Rocket 4.4 02:57:02 10° NNW 03:02:00 51° NW 03:02:00 51° NW
IRS-1D 4.3 02:59:07 10° NNE 03:04:06 44° E 03:04:06 44° E
USA 215 4.4 03:00:39 10° NE 03:06:28 36° NNW 03:08:47 28° WNW
Cosmos 2366 rocket 4.2 03:03:38 10° NNW 03:09:01 55° WNW 03:09:01 55° WNW
Cosmos 1943 4.3 03:12:41 33° NW 03:12:41 33° NW 03:17:19 10° N
Cosmos 1656 Rocket 4.4 03:06:57 10° NNW 03:12:12 48° ENE 03:14:45 28° ESE
GEOS 3 Rocket 3.6 03:08:31 10° NE 03:13:30 79° NE 03:13:30 79° NE
Lacrosse 5 rocket 3.8 03:14:44 16° ESE 03:14:44 16° ESE 03:17:13 10° E
UNK 4.3 03:16:45 57° NE 03:16:45 57° NE 03:20:50 10° N
ARIANE 5 R/B 2.9 03:14:16 10° NNE 03:19:27 58° E 03:19:42 58° ESE
COSMOS 2455 3.4 03:13:50 10° NNW 03:19:45 55° ENE 03:25:37 10° SE
Meteor 2-14 Rocket 4.3 03:15:59 10° NNW 03:21:59 71° W 03:21:59 71° W
Meteor 2-21 Rocket 4.5 03:17:40 10° NNW 03:23:27 62° WNW 03:23:27 62° WNW
Meteor 2-16 Rocket 4.2 03:17:42 10° N 03:23:48 78° W 03:24:01 77° WSW
NOSS 3-2 (C) 4.0 03:17:51 10° NNW 03:25:27 86° ENE 03:33:40 10° SSE
Cosmos 923 Rocket 4.2 03:25:59 62° NW 03:25:59 62° NW 03:30:54 10° NNE
RESURS DK-1 3.3 03:28:13 46° ENE 03:28:13 46° ENE 03:31:23 10° NNE
Cosmos 1805 4.2 03:31:12 10° N 03:34:50 45° ENE 03:34:50 45° ENE
USA 267 3.1 03:31:49 10° SE 03:38:18 69° SW 03:44:51 10° NW
Cosmos 1271 Rocket 4.0 03:35:41 10° N 03:39:11 36° ENE 03:39:36 35° E
NPP 4.5 03:36:21 10° N 03:41:02 36° WNW 03:41:02 36° WNW
Cosmos 2369 Rocket 4.4 03:38:22 10° NW 03:38:41 11° WNW 03:38:41 11° WNW
CENTAUR R/B 4.0 03:35:55 10° NNW 03:43:28 48° NE 03:51:30 10° ESE
Cosmos 192 4.2 03:44:35 80° S 03:44:52 87° ESE 03:49:49 10° NNE
Cosmos 1842 3.9 03:47:25 51° N 03:47:25 51° N 03:50:24 10° N
COBE Rocket 3.9 03:41:46 10° NNE 03:46:53 83° ESE 03:47:37 65° S
Cosmos 724 4.2 03:42:43 10° NW 03:48:48 75° WSW 03:52:26 25° SSE
Tiangong 1 3.4 03:50:41 21° ENE 03:50:41 21° ENE 03:51:54 10° ENE
ADEOS Rocket 3.0 03:44:06 10° N 03:50:05 78° WNW 03:52:01 48° SSW
NOSS 3-4 (A) 3.8 03:49:10 44° W 03:50:37 53° NW 03:56:58 10° NNE
NOSS 3-4 (C) 3.8 03:49:15 44° W 03:50:43 54° NW 03:57:05 10° NNE
NOSS 2-2 (D) 4.4 03:51:47 37° SE 03:52:11 38° ESE 03:56:15 10° NE
Nadezhda 3 Rocket 4.1 03:53:26 48° WSW 03:54:29 54° W 04:00:40 10° N
Resurs 1-4 Rocket 2.1 03:52:08 10° N 03:57:19 60° WNW 03:58:03 54° WSW
COSMOS 2406 3.2 03:57:45 53° SW 03:59:06 73° WNW 04:04:52 10° NNE
CZ-2D R/B 2.2 03:55:30 10° N 04:00:43 57° WNW 04:01:33 51° WSW
Cosmos 2112 Rocket 4.3 04:00:33 45° W 04:01:08 47° WNW 04:06:14 10° N
Cosmos 1544 3.8 03:57:35 10° NNW 04:00:19 46° NNW 04:00:19 46° NNW
MOZ.5/SAFIR/RUBIN 5/SL-8 3.9 03:59:03 26° SSE 04:01:38 71° ENE 04:06:18 10° N
NOSS 3-2 (A) 4.2 04:00:24 10° NW 04:07:35 45° WSW 04:15:13 10° S
Cosmos 1943 Rocket 3.8 04:04:34 10° NW 04:06:33 18° WNW 04:06:33 18° WNW
NOSS 2-2 (C) 3.7 04:09:36 49° S 04:10:25 61° ESE 04:14:51 10° NE
Cosmos 1953 2.2 04:07:16 10° N 04:11:17 86° W 04:12:01 59° S
Cosmos 389 Rocket 4.1 04:09:18 10° N 04:12:40 34° ENE 04:15:59 10° SE
Delta 2 Rocket 4.2 04:14:24 28° SE 04:14:24 28° SE 04:16:32 10° ESE
Cosmos 1758 Rocket 3.4 04:15:54 52° SSW 04:16:54 75° W 04:21:16 10° N
Cosmos 1707 3.8 04:15:03 20° SSE 04:17:21 42° E 04:21:01 10° NNE
Cosmos 1624 Rocket 3.9 04:13:08 10° NNW 04:18:22 82° WSW 04:23:36 10° SSE
Cosmos 1470 3.3 04:16:30 10° N 04:20:21 58° E 04:23:46 13° SSE
USA 32 4.1 04:18:56 39° SW 04:20:40 60° W 04:25:52 10° N
Landsat 4 4.1 04:18:37 12° SSE 04:21:57 60° ENE 04:25:38 10° N
Cosmos 1727 Rocket 4.2 04:16:46 14° S 04:22:04 72° E 04:28:13 10° NNE
Cosmos 1758 3.5 04:22:12 10° NNW 04:26:10 49° W 04:26:35 46° WSW
Cosmos-2242 3.3 04:21:58 10° N 04:26:21 67° E 04:30:43 10° SSE
USA 161 2.0 04:27:46 49° NW 04:27:46 49° NW 04:30:07 10° NNW
ADEOS 4.4 04:22:44 10° N 04:27:19 32° WNW 04:28:35 28° W
UNKNOWN OBJECT B 3.3 04:27:06 10° N 04:30:53 42° WNW 04:31:33 39° W
Cosmos 2056 Rocket 3.4 04:26:05 10° NNW 04:31:24 68° WSW 04:36:35 10° S
SL-16 R/B 3.4 04:34:30 26° WSW 04:35:22 27° W 04:40:32 10° NW
Cosmos 921 Rocket 3.0 04:32:38 10° NNW 04:37:06 66° WSW 04:41:34 10° S
Cosmos 1953 Rocket 4.1 04:36:52 34° WSW 04:38:03 41° WNW 04:42:17 10° N
Cosmos 374 Rocket 4.1 04:34:45 10° NW 04:38:30 75° WSW 04:42:39 10° SSE
Geosat FO 4.5 04:42:08 10° SSE 04:45:43 74° WSW 04:49:21 10° NNW
Meteor 2-15 4.4 04:40:19 10° S 04:46:28 88° W 04:52:38 10° N
MOS 1 Rocket 3.3 04:42:30 10° N 04:46:43 54° WNW 04:49:12 24° SW
PSLV R/B 3.9 04:43:11 10° NNE 04:47:17 83° E 04:50:47 14° S
CZ-4B R/B 3.4 04:44:07 10° NNE 04:48:22 67° E 04:52:47 10° S
MOS 1-B 4.4 04:43:39 10° N 04:49:26 68° WNW 04:54:14 15° SSW
Cosmos 1378 3.2 04:48:40 13° S 04:52:00 77° E 04:55:45 10° N
Lacrosse 5 rocket 1.7 04:50:27 25° WSW 04:53:05 70° NW 04:57:45 10° NE
SL-27 R/B 4.1 04:52:50 18° WNW 04:53:20 19° WNW 04:55:58 10° NNW
Meteor 2-15 Rocket 4.5 04:47:54 10° S 04:54:04 89° ESE 05:00:15 10° N
IRS-1C Rocket 4.4 04:51:06 10° NNE 04:56:22 67° ESE 05:01:36 10° S
ARIANE 5 R/B 4.2 04:54:37 10° NNW 04:58:04 18° WNW 05:00:03 15° W
Cosmos 1459 Rocket 4.3 04:56:39 10° N 05:02:48 71° E 05:09:01 10° SSE
CZ-4B DEB 4.4 04:57:29 10° NNE 05:03:01 76° ESE 05:08:28 10° S
Cosmos 1605 Rocket 4.3 04:58:42 10° NNW 05:04:31 43° W 05:10:14 10° SSW
COSMOS 2455 3.9 05:00:40 10° NW 05:05:14 23° WSW 05:09:48 10° SSW
RESURS DK-1 4.5 05:04:08 11° WNW 05:05:44 13° NW 05:07:48 10° NNW
Okean O Rocket 1.6 05:02:11 10° N 05:06:38 78° WNW 05:11:01 10° SSW
Cosmos 1452 Rocket 3.4 05:01:22 10° NNW 05:06:39 80° WSW 05:11:53 10° SSE
ADEOS II 2.1 05:01:54 10° NNE 05:07:12 87° WNW 05:12:27 10° SSW
Meteor 2-5 Rocket 3.8 05:03:05 10° SSW 05:08:43 69° W 05:14:30 10° N
Cosmos 1733 3.9 05:05:37 10° NNW 05:09:01 31° W 05:11:59 12° SSW
Cosmos 1818 4.0 05:08:43 16° SW 05:12:51 49° NW 05:18:09 10° NNE
Cosmos 2278 3.7 05:09:00 10° NNW 05:14:46 85° WSW 05:20:28 10° SSE
COSMOS 2487 2.6 05:11:55 14° SSW 05:14:48 56° WNW 05:18:19 10° N
Cosmos 1697 Rocket 3.9 05:10:04 10° NNW 05:15:29 47° ENE 05:20:52 10° SE
Cosmos 468 4.5 05:11:58 10° SSW 05:17:11 78° WNW 05:22:25 10° NNE
EO 1 Del DPAF 3.2 05:14:53 10° SSE 05:18:44 87° WSW 05:22:37 10° NNW
Orbus 7S? 3.2 05:16:03 10° NW 05:19:03 56° NE 05:21:36 10° SE
SL-24 R/B 4.3 05:15:36 10° NNE 05:20:29 85° ESE 05:24:48 10° SSW
Cosmos 2369 3.7 05:15:43 10° NNW 05:21:28 77° WSW 05:27:10 10° SSE
Tiangong 1 1.2 05:22:20 10° WNW 05:25:09 64° NNE 05:27:58 10° E
Cosmos 1420 Rocket 4.0 05:20:03 10° NNW 05:25:23 85° WSW 05:30:41 10° SSE
Cosmos 1048 Rocket 4.0 05:25:17 10° SSW 05:30:26 86° WNW 05:35:35 10° NNE
Meteor 2-1 Rocket 4.3 05:26:08 10° N 05:31:48 88° E 05:37:33 10° S
Cosmos 2100 Rocket 4.0 05:27:44 10° NNW 05:33:51 61° W 05:39:52 10° S
CENTAUR R/B 3.4 05:26:45 10° NW 05:34:17 46° WSW 05:42:10 10° S
SOZ 4.4 05:32:39 11° WSW 05:34:42 55° NW 05:37:05 10° NE
Cosmos 1269 Rocket 4.0 05:33:02 10° SSW 05:38:17 74° WNW 05:43:36 10° NNE
Cosmos 2082 Rocket 2.3 05:37:31 10° SSW 05:43:11 67° WNW 05:48:53 10° NNE
Cosmos 2173 Rocket 4.1 05:38:16 10° NNW 05:44:24 55° W 05:50:24 10° SSW
